Location: Austin
(30.3000°N, 97.7500°W)
Time: 05:25:19
(UTC-05:00)

Aureole 1 Rocket - Pass Details

Date: 16 June 2025
Orbit: 373 x 1191 km, 73.9° (Epoch: 08 July)

Event Time Altitude Azimuth Distance (km) Brightness Sun altitude
Exits shadow 05:58:16 - 239° (WSW) 1,855 4.8 -6.6°
Reaches altitude 10° 05:58:39 10° 243° (WSW) 1,735 4.7 -6.5°
Maximum altitude 06:01:45 23° 297° (WNW) 1,257 4.4 -5.9°
Drops below altitude 10° 06:05:26 10° 349° (N) 2,102 6.1 -5.3°
Sets 06:08:27 0° 3° (N) 3,195 7.2 -4.7°
